This is the latest recevied weather packets stored in our database for station/object K6GMW. If no packets are shown the sender has not sent any weather packets the latest 10 day(s).
| Time | Temp. | Humidity | Pressure | Rain* | Wind** | Luminosity | Snow |
|---|---|---|---|---|---|---|---|
| 1778155612 | 10.56° C | 96% | 1019.9 hPa | 0 mm | - | 47 W/m² | - |
| 1778155309 | 10.56° C | 96% | 1019.7 hPa | 0 mm | - | 38 W/m² | - |
| 1778155005 | 10.56° C | 96% | 1019.6 hPa | 0 mm | - | 23 W/m² | - |
| 1778154700 | 10.56° C | 96% | 1019.9 hPa | 0 mm | - | 17 W/m² | - |
| 1778154396 | 10.56° C | 96% | 1019.7 hPa | 0 mm | - | 14 W/m² | - |
| 1778154094 | 10.56° C | 95% | 1019.5 hPa | 0 mm | - | 9 W/m² | - |
| 1778153791 | 10.56° C | 95% | 1019.4 hPa | 0 mm | - | 6 W/m² | - |
| 1778153488 | 10.56° C | 95% | 1019.2 hPa | 0 mm | - | 4 W/m² | - |
| 1778153186 | 10.56° C | 95% | 1019.3 hPa | 0 mm | - | 2 W/m² | - |
| 1778152882 | 10.56° C | 95% | 1018.9 hPa | 0 mm | - | 1 W/m² | - |
| 1778152580 | 10.56° C | 95% | 1018.9 hPa | 0 mm | - | 0 W/m² | - |
| 1778152276 | 10.56° C | 95% | 1018.8 hPa | 0 mm | - | 0 W/m² | - |
| 1778151972 | 10.56° C | 95% | 1018.5 hPa | 0 mm | - | 0 W/m² | - |
| 1778151669 | 10.56° C | 95% | 1018.4 hPa | 0 mm | - | 0 W/m² | - |
| 1778151366 | 10.56° C | 95% | 1018.4 hPa | 0 mm | - | 0 W/m² | - |
| 1778151062 | 10.56° C | 95% | 1018.3 hPa | 0 mm | - | 0 W/m² | - |
| 1778150760 | 10.56° C | 95% | 1018.4 hPa | 0 mm | - | 0 W/m² | - |
| 1778150456 | 10.56° C | 94% | 1018.4 hPa | 0 mm | - | 0 W/m² | - |
| 1778150152 | 10.56° C | 94% | 1018.4 hPa | 0 mm | - | 0 W/m² | - |
| 1778149849 | 10.56° C | 94% | 1018.4 hPa | 0 mm | - | 0 W/m² | - |
| 1778149545 | 10.56° C | 94% | 1018.3 hPa | 0 mm | - | 0 W/m² | - |
| 1778149242 | 10.56° C | 94% | 1018.3 hPa | 0 mm | - | 0 W/m² | - |
| 1778148937 | 10.56° C | 93% | 1018.1 hPa | 0 mm | - | 0 W/m² | - |
| 1778148633 | 10.56° C | 93% | 1018.2 hPa | 0 mm | - | 0 W/m² | - |
| 1778148331 | 10.56° C | 93% | 1018.2 hPa | 0 mm | - | 0 W/m² | - |
* Rain latest hour (hover to see other rain measurements)
** Current wind speed in m/s (hover to see current wind gust speed)